Precipitable_Water
0.51 0.52 0.49 0.51 0.51 0.51 0.51 0.51 0.51 0.51 0.52 0.51 0.52 0.51 0.51 0.52 0.55 0.58 0.62 0.65 0.63 0.65 0.66 0.67 0.69 0.71 0.75 0.79 0.82 0.86 0.91 0.96 1.02 1.09 1.16 1.27 1.33 1.37 1.41 1.42 1.44 1.44 1.43 1.46 1.49 1.51 1.52 1.51 1.49 1.50 1.50 1.50
0.53 0.53 0.50 0.52 0.53 0.51 0.50 0.51 0.51 0.52 0.52 0.53 0.53 0.53 0.52 0.54 0.56 0.58 0.61 0.66 0.65 0.65 0.66 0.68 0.70 0.70 0.73 0.78 0.83 0.86 0.89 0.93 0.98 1.04 1.12 1.18 1.24 1.30 1.35 1.40 1.40 1.41 1.46 1.50 1.47 1.48 1.51 1.52 1.51 1.51 1.52 1.52
0.56 0.54 0.51 0.54 0.54 0.52 0.51 0.51 0.51 0.52 0.52 0.53 0.53 0.53 0.54 0.56 0.59 0.59 0.60 0.65 0.65 0.63 0.64 0.67 0.69 0.71 0.73 0.77 0.83 0.86 0.87 0.91 0.96 1.01 1.07 1.13 1.16 1.20 1.27 1.36 1.42 1.39 1.36 1.48 1.50 1.53 1.50 1.52 1.52 1.51 1.53 1.54
0.57 0.57 0.54 0.55 0.54 0.54 0.52 0.51 0.50 0.52 0.51 0.52 0.52 0.53 0.54 0.56 0.59 0.59 0.61 0.64 0.63 0.62 0.63 0.65 0.68 0.71 0.73 0.78 0.82 0.85 0.88 0.92 0.95 0.99 1.04 1.10 1.14 1.18 1.22 1.26 1.29 1.33 1.37 1.44 1.47 1.46 1.49 1.49 1.52 1.53 1.50 1.52
0.60 0.57 0.56 0.55 0.53 0.53 0.51 0.50 0.49 0.50 0.50 0.51 0.52 0.53 0.54 0.55 0.56 0.58 0.60 0.64 0.62 0.62 0.64 0.66 0.69 0.72 0.73 0.78 0.82 0.85 0.88 0.91 0.93 0.97 1.01 1.04 1.10 1.14 1.17 1.21 1.28 1.30 1.32 1.37 1.37 1.40 1.39 1.50 1.55 1.53 1.52 1.51
0.58 0.56 0.57 0.55 0.53 0.53 0.51 0.49 0.49 0.49 0.49 0.50 0.51 0.52 0.53 0.54 0.55 0.57 0.60 0.62 0.61 0.61 0.64 0.67 0.69 0.72 0.72 0.76 0.81 0.83 0.87 0.89 0.90 0.94 0.97 1.00 1.02 1.06 1.11 1.17 1.20 1.23 1.25 1.28 1.31 1.40 1.48 1.48 1.51 1.50 1.43 1.45
0.56 0.54 0.55 0.54 0.53 0.52 0.52 0.52 0.51 0.50 0.49 0.49 0.50 0.50 0.51 0.53 0.55 0.57 0.58 0.60 0.61 0.62 0.65 0.66 0.68 0.70 0.72 0.74 0.78 0.81 0.85 0.87 0.88 0.91 0.94 0.96 0.99 1.02 1.04 1.08 1.14 1.20 1.24 1.27 1.31 1.34 1.39 1.37 1.42 1.44 1.47 1.46
0.54 0.53 0.53 0.51 0.52 0.51 0.52 0.53 0.52 0.52 0.52 0.51 0.50 0.50 0.51 0.51 0.54 0.57 0.58 0.59 0.62 0.64 0.65 0.66 0.67 0.69 0.70 0.72 0.75 0.77 0.80 0.84 0.87 0.89 0.90 0.93 0.95 0.97 0.99 1.01 1.04 1.07 1.09 1.11 1.20 1.25 1.24 1.23 1.24 1.26 1.27 1.29
0.53 0.52 0.50 0.50 0.51 0.52 0.54 0.52 0.53 0.53 0.53 0.52 0.52 0.53 0.53 0.53 0.54 0.55 0.57 0.58 0.60 0.63 0.65 0.66 0.67 0.67 0.68 0.69 0.71 0.75 0.76 0.79 0.82 0.85 0.86 0.88 0.90 0.92 0.94 0.97 0.99 1.01 1.03 1.05 1.06 1.06 1.08 1.09 1.10 1.11 1.14 1.19
0.53 0.52 0.49 0.49 0.52 0.53 0.53 0.53 0.53 0.54 0.53 0.53 0.53 0.53 0.54 0.54 0.55 0.55 0.56 0.57 0.58 0.61 0.64 0.64 0.64 0.66 0.67 0.68 0.69 0.73 0.74 0.76 0.78 0.79 0.82 0.83 0.84 0.87 0.89 0.92 0.96 0.97 0.99 0.99 1.01 1.02 1.03 1.03 1.03 1.03 1.03 1.04
0.52 0.50 0.50 0.50 0.51 0.51 0.51 0.53 0.52 0.52 0.53 0.53 0.53 0.54 0.54 0.53 0.53 0.54 0.55 0.55 0.57 0.58 0.62 0.63 0.64 0.66 0.68 0.68 0.69 0.73 0.74 0.75 0.76 0.77 0.78 0.79 0.80 0.82 0.84 0.87 0.90 0.93 0.94 0.97 0.97 0.99 1.01 1.01 1.00 0.99 0.97 0.96
0.50 0.50 0.50 0.50 0.50 0.51 0.51 0.51 0.51 0.51 0.51 0.52 0.52 0.53 0.54 0.54 0.53 0.52 0.54 0.56 0.56 0.58 0.61 0.61 0.63 0.66 0.67 0.68 0.69 0.72 0.73 0.73 0.75 0.75 0.76 0.76 0.77 0.78 0.80 0.81 0.85 0.87 0.89 0.91 0.93 0.91 0.91 0.92 0.93 0.94 0.96 0.97
0.49 0.49 0.48 0.48 0.48 0.48 0.49 0.48 0.49 0.50 0.50 0.50 0.50 0.52 0.53 0.53 0.52 0.53 0.54 0.55 0.57 0.59 0.58 0.61 0.62 0.64 0.65 0.67 0.68 0.70 0.71 0.72 0.72 0.74 0.74 0.74 0.74 0.74 0.76 0.79 0.80 0.82 0.83 0.86 0.87 0.88 0.89 0.89 0.88 0.90 0.92 0.93
0.47 0.47 0.45 0.46 0.45 0.46 0.47 0.46 0.46 0.47 0.47 0.47 0.48 0.49 0.51 0.52 0.52 0.52 0.53 0.55 0.57 0.57 0.58 0.60 0.61 0.62 0.64 0.65 0.68 0.69 0.68 0.71 0.71 0.71 0.72 0.72 0.72 0.72 0.74 0.75 0.78 0.80 0.82 0.84 0.85 0.86 0.86 0.88 0.90 0.89 0.90 0.90
0.46 0.46 0.44 0.44 0.44 0.44 0.43 0.44 0.44 0.43 0.43 0.43 0.44 0.46 0.48 0.49 0.51 0.52 0.53 0.53 0.55 0.56 0.57 0.59 0.60 0.61 0.62 0.63 0.66 0.68 0.69 0.71 0.71 0.71 0.70 0.70 0.70 0.71 0.72 0.73 0.76 0.77 0.77 0.78 0.81 0.84 0.84 0.85 0.86 0.85 0.86 0.85
0.45 0.44 0.43 0.41 0.41 0.40 0.41 0.41 0.40 0.40 0.40 0.40 0.41 0.43 0.44 0.45 0.46 0.49 0.50 0.52 0.52 0.53 0.55 0.56 0.58 0.60 0.61 0.62 0.65 0.68 0.68 0.69 0.70 0.69 0.70 0.70 0.70 0.70 0.70 0.71 0.73 0.75 0.75 0.76 0.78 0.79 0.80 0.82 0.83 0.84 0.84 0.85
0.43 0.41 0.40 0.39 0.38 0.40 0.40 0.39 0.39 0.38 0.38 0.39 0.39 0.40 0.41 0.42 0.43 0.45 0.46 0.48 0.49 0.50 0.52 0.53 0.56 0.58 0.61 0.63 0.65 0.67 0.68 0.67 0.68 0.67 0.67 0.67 0.68 0.67 0.67 0.67 0.67 0.70 0.72 0.73 0.74 0.76 0.77 0.79 0.79 0.79 0.80 0.80
0.40 0.40 0.40 0.40 0.40 0.40 0.39 0.38 0.37 0.37 0.37 0.38 0.38 0.39 0.39 0.40 0.42 0.43 0.44 0.44 0.45 0.47 0.48 0.50 0.53 0.55 0.58 0.61 0.63 0.65 0.66 0.66 0.67 0.66 0.65 0.65 0.66 0.64 0.64 0.62 0.64 0.64 0.65 0.67 0.69 0.71 0.73 0.74 0.75 0.76 0.76 0.77
0.41 0.41 0.40 0.40 0.40 0.40 0.39 0.38 0.37 0.37 0.37 0.37 0.38 0.38 0.38 0.39 0.39 0.40 0.41 0.42 0.42 0.43 0.44 0.45 0.47 0.50 0.53 0.56 0.58 0.58 0.60 0.62 0.64 0.64 0.64 0.64 0.63 0.64 0.64 0.63 0.62 0.62 0.62 0.63 0.64 0.66 0.68 0.69 0.71 0.72 0.72 0.73
0.42 0.42 0.41 0.40 0.40 0.39 0.39 0.38 0.37 0.37 0.37 0.37 0.38 0.38 0.37 0.38 0.38 0.39 0.39 0.41 0.41 0.41 0.42 0.43 0.44 0.46 0.49 0.51 0.53 0.53 0.54 0.56 0.56 0.58 0.60 0.61 0.62 0.60 0.60 0.61 0.61 0.63 0.62 0.62 0.62 0.64 0.65 0.66 0.67 0.68 0.69 0.69
0.41 0.41 0.41 0.40 0.40 0.40 0.38 0.37 0.36 0.36 0.36 0.36 0.35 0.35 0.35 0.35 0.35 0.36 0.37 0.38 0.39 0.38 0.38 0.39 0.41 0.43 0.44 0.47 0.48 0.49 0.49 0.49 0.50 0.50 0.51 0.54 0.57 0.57 0.55 0.56 0.57 0.59 0.61 0.61 0.62 0.63 0.63 0.63 0.63 0.63 0.64 0.65
0.41 0.41 0.41 0.41 0.41 0.40 0.38 0.36 0.35 0.35 0.35 0.33 0.33 0.33 0.32 0.33 0.33 0.34 0.34 0.35 0.35 0.35 0.36 0.36 0.37 0.39 0.40 0.42 0.43 0.44 0.45 0.45 0.48 0.48 0.48 0.47 0.50 0.51 0.50 0.49 0.50 0.51 0.54 0.56 0.57 0.58 0.60 0.61 0.61 0.61 0.61 0.61
0.40 0.41 0.41 0.41 0.40 0.38 0.36 0.35 0.34 0.34 0.33 0.32 0.32 0.31 0.31 0.31 0.32 0.32 0.32 0.33 0.33 0.33 0.33 0.33 0.34 0.35 0.36 0.37 0.38 0.38 0.38 0.39 0.41 0.42 0.43 0.42 0.42 0.44 0.45 0.43 0.43 0.43 0.45 0.46 0.48 0.49 0.51 0.54 0.55 0.56 0.56 0.56
0.36 0.37 0.37 0.35 0.35 0.34 0.33 0.33 0.32 0.32 0.31 0.31 0.30 0.30 0.30 0.30 0.30 0.30 0.31 0.31 0.31 0.31 0.31 0.31 0.31 0.32 0.33 0.34 0.34 0.33 0.32 0.33 0.34 0.34 0.35 0.36 0.37 0.37 0.39 0.41 0.41 0.41 0.41 0.41 0.41 0.41 0.43 0.44 0.45 0.44 0.45 0.46
0.33 0.31 0.32 0.33 0.32 0.30 0.31 0.31 0.30 0.29 0.29 0.29 0.29 0.29 0.29 0.28 0.28 0.29 0.29 0.29 0.29 0.28 0.28 0.29 0.29 0.29 0.30 0.31 0.31 0.31 0.31 0.32 0.32 0.33 0.34 0.34 0.34 0.33 0.31 0.32 0.35 0.36 0.37 0.33 0.32 0.36 0.34 0.35 0.37 0.37 0.36 0.36
0.33 0.32 0.31 0.31 0.30 0.31 0.30 0.29 0.28 0.27 0.28 0.28 0.28 0.27 0.28 0.27 0.27 0.27 0.27 0.28 0.28 0.28 0.27 0.27 0.27 0.27 0.28 0.29 0.29 0.29 0.31 0.31 0.31 0.31 0.31 0.31 0.31 0.33 0.30 0.29 0.32 0.31 0.30 0.25 0.24 0.24 0.26 0.29 0.32 0.33 0.33 0.34
0.31 0.32 0.32 0.32 0.31 0.31 0.30 0.31 0.31 0.30 0.29 0.28 0.27 0.27 0.27 0.27 0.27 0.27 0.27 0.27 0.27 0.27 0.27 0.27 0.27 0.27 0.27 0.27 0.28 0.27 0.28 0.28 0.28 0.28 0.28 0.29 0.27 0.28 0.30 0.30 0.32 0.31 0.31 0.24 0.27 0.28 0.25 0.24 0.24 0.27 0.30 0.32
0.36 0.35 0.34 0.34 0.34 0.34 0.32 0.30 0.31 0.30 0.29 0.28 0.28 0.27 0.27 0.28 0.27 0.27 0.27 0.27 0.27 0.27 0.27 0.27 0.26 0.27 0.27 0.27 0.27 0.27 0.26 0.26 0.26 0.27 0.27 0.27 0.27 0.27 0.24 0.26 0.28 0.32 0.31 0.29 0.25 0.18 0.20 0.22 0.23 0.20 0.23 0.25
0.39 0.38 0.36 0.36 0.35 0.35 0.34 0.32 0.29 0.28 0.27 0.27 0.27 0.27 0.27 0.27 0.28 0.27 0.27 0.27 0.27 0.27 0.27 0.27 0.27 0.27 0.27 0.27 0.27 0.27 0.26 0.26 0.26 0.26 0.27 0.27 0.27 0.26 0.25 0.24 0.27 0.29 0.31 0.30 0.32 0.26 0.21 0.19 0.18 0.18 0.22 0.23
0.39 0.38 0.36 0.35 0.32 0.30 0.29 0.27 0.26 0.25 0.25 0.26 0.26 0.26 0.28 0.28 0.28 0.28 0.27 0.27 0.27 0.27 0.28 0.27 0.27 0.27 0.27 0.26 0.27 0.26 0.26 0.26 0.27 0.26 0.26 0.26 0.26 0.26 0.27 0.26 0.25 0.26 0.30 0.31 0.31 0.31 0.30 0.26 0.19 0.19 0.22 0.22
0.39 0.38 0.37 0.36 0.34 0.32 0.29 0.27 0.27 0.29 0.29 0.28 0.28 0.28 0.28 0.28 0.28 0.28 0.27 0.27 0.27 0.27 0.27 0.27 0.27 0.27 0.26 0.26 0.26 0.27 0.26 0.26 0.26 0.26 0.26 0.26 0.26 0.26 0.27 0.27 0.23 0.24 0.25 0.29 0.29 0.30 0.30 0.30 0.30 0.29 0.23 0.18
Wind_Speed
25 25 26 26 26 26 27 27 27 27 27 27 27 28 28 28 28 28 29 29 29 29 30 30 30 31 31 32 33 33 33 34 34 34 35 35 36 36 36 37 37 37 37 37 38 38 38 38 38 37 38 38
25 26 27 27 27 27 27 27 28 28 28 28 28 28 28 28 28 28 29 28 29 29 29 29 29 30 30 30 31 31 32 32 33 33 33 33 34 35 36 36 36 37 36 37 37 38 38 38 38 38 38 37
25 26 27 27 27 28 28 28 29 29 28 29 28 28 28 28 28 28 28 28 29 29 29 29 29 29 29 29 29 30 30 30 31 31 32 32 33 34 34 35 35 36 36 36 35 36 37 38 38 38 38 37
26 27 27 27 27 28 28 29 29 29 29 29 29 29 29 29 28 28 28 28 29 29 29 29 29 29 29 29 28 29 29 29 29 30 30 31 32 33 33 34 34 35 35 36 35 35 36 37 36 36 37 37
27 27 28 28 28 29 29 30 30 30 30 30 30 30 30 29 29 28 28 29 29 30 30 30 29 29 28 28 28 28 28 28 28 29 29 30 31 31 32 33 34 34 34 35 35 35 35 34 34 35 35 35
27 28 28 28 29 30 30 30 30 30 30 30 30 30 30 30 30 29 29 29 30 30 30 29 29 29 28 28 28 28 28 28 28 28 28 29 29 30 31 32 33 33 34 34 34 34 34 32 32 32 32 33
28 29 29 29 30 30 30 30 30 30 30 30 30 30 30 30 30 30 30 30 30 30 30 29 29 29 29 28 28 28 28 28 28 28 28 28 28 29 29 30 30 31 31 31 31 30 30 30 30 30 30 32
29 29 30 30 30 31 30 30 30 30 30 30 30 31 31 31 31 30 30 30 30 29 29 29 29 29 29 29 28 28 28 28 28 28 28 28 28 28 28 28 28 28 28 28 28 28 28 29 29 30 30 31
29 30 30 30 31 31 31 31 31 31 30 31 31 31 31 31 31 30 30 30 29 29 29 29 29 29 29 29 28 28 28 28 28 28 28 28 27 27 27 26 26 26 27 27 27 27 28 29 29 30 30 30
30 30 30 30 31 31 31 31 31 31 31 31 31 31 31 31 31 31 30 30 30 29 29 29 29 29 29 29 29 28 28 28 28 28 28 27 27 27 26 26 26 26 26 26 27 27 27 28 28 28 29 29
30 30 30 30 31 31 31 31 31 31 31 31 31 31 32 31 31 31 31 30 30 30 29 29 29 29 29 28 28 28 28 28 28 27 27 27 27 26 26 26 26 26 26 26 26 26 26 26 27 27 28 28
30 30 30 31 31 31 31 31 31 31 32 31 31 31 32 32 31 31 31 30 30 30 29 29 29 29 29 29 29 28 28 28 28 27 27 27 26 26 26 26 26 26 26 26 26 26 26 27 27 27 27 28
30 30 31 31 31 31 31 31 31 31 31 31 31 31 31 31 31 31 31 30 30 30 29 30 29 29 29 29 29 29 28 28 28 27 27 27 26 26 26 27 27 26 26 26 26 26 26 27 27 27 27 28
30 31 31 31 31 31 31 31 31 31 31 31 31 31 31 31 31 31 30 30 30 30 30 30 29 29 29 29 29 29 28 28 28 28 27 27 27 26 26 27 27 27 27 26 26 26 26 27 27 27 27 28
31 31 31 31 31 31 31 31 31 31 31 31 31 31 31 31 30 30 30 30 30 30 30 30 29 29 29 29 28 28 28 28 28 28 27 27 27 27 27 27 27 27 27 27 27 27 27 27 27 27 27 27
31 31 31 31 31 31 31 31 31 31 31 31 31 31 31 31 31 31 30 30 30 30 30 29 29 29 29 29 29 28 28 28 28 27 27 27 27 27 27 27 27 27 27 27 27 27 26 26 27 27 27 27
32 32 31 31 31 31 31 31 31 31 31 31 31 31 31 31 31 31 31 30 30 30 29 29 29 29 29 29 29 29 28 28 27 27 27 27 27 27 27 27 27 27 27 27 26 27 27 27 27 27 27 28
32 32 31 31 31 31 31 31 31 31 31 31 31 31 31 31 31 31 31 31 30 30 29 29 29 29 29 29 29 29 28 28 27 27 27 27 27 27 27 27 27 27 27 26 26 27 27 27 27 27 27 28
32 32 31 31 31 31 31 31 31 31 31 31 31 31 31 31 31 31 31 31 30 30 29 29 28 28 29 29 29 28 28 28 28 28 27 27 27 27 27 27 27 27 27 27 27 27 27 27 27 28 28 28
32 32 31 31 31 31 31 31 31 31 31 30 31 31 31 31 31 31 31 31 30 29 29 29 28 28 29 29 28 28 28 28 28 28 28 28 28 28 27 27 27 27 27 27 27 27 28 28 28 28 28 28
31 31 31 31 31 31 31 31 31 31 31 30 30 31 31 31 30 30 30 30 29 29 29 28 28 28 28 28 28 28 28 28 28 28 28 28 28 28 28 28 28 28 28 28 28 28 28 28 29 29 29 29
31 31 31 31 31 30 30 30 30 30 30 30 30 30 30 30 29 29 29 29 28 28 28 27 27 27 27 27 27 27 27 28 28 28 28 28 28 28 28 28 28 28 28 28 28 29 29 29 29 29 29 29
31 31 30 30 30 30 30 30 30 30 30 29 29 29 29 29 28 28 28 28 27 27 27 26 26 26 26 26 26 26 26 27 27 27 27 27 27 27 27 28 28 28 29 29 29 29 28 28 28 28 28 28
30 30 30 30 30 30 29 29 29 29 29 28 28 28 28 27 27 27 26 26 26 25 25 25 24 24 24 24 24 25 25 25 25 25 25 26 26 26 26 26 27 27 27 28 28 28 27 27 27 27 27 28
29 29 29 29 29 29 29 28 28 28 28 27 27 26 26 26 26 25 25 25 24 24 23 23 23 22 22 22 23 23 23 23 23 23 23 23 23 24 24 24 24 25 25 25 25 25 25 25 26 26 26 26
28 28 28 28 28 28 28 27 27 27 27 26 26 25 25 25 24 24 23 23 23 22 22 21 21 21 21 21 21 22 22 22 22 22 22 22 22 22 23 23 23 23 23 24 24 25 24 24 25 25 25 25
28 28 27 27 27 27 27 26 26 25 25 25 25 24 24 23 23 23 22 22 22 21 21 21 21 20 20 21 21 21 21 21 21 21 21 22 22 22 22 22 23 23 23 23 24 24 24 24 24 24 24 26
27 27 27 27 26 26 26 25 25 24 24 24 24 23 23 22 22 22 21 21 21 21 21 20 20 21 20 21 21 21 21 21 21 21 22 22 22 22 23 23 23 23 23 23 23 24 24 24 24 24 25 26
27 27 26 26 26 25 24 24 24 24 24 23 23 23 22 22 22 22 21 21 21 21 21 21 21 21 21 21 21 21 21 21 21 22 22 22 22 22 23 23 23 23 23 23 22 23 24 24 24 25 26 27
26 25 25 24 24 24 23 23 23 23 23 23 23 23 22 22 22 22 21 21 21 21 21 21 21 21 21 21 21 21 21 21 21 22 22 22 22 22 23 23 23 23 23 23 23 23 23 24 25 26 26 26
24 23 23 23 22 22 22 22 22 23 23 22 22 22 23 22 22 22 21 21 21 21 21 21 21 21 21 21 21 21 21 21 21 21 22 22 22 22 22 23 23 23 23 23 23 24 24 24 25 25 26 25
Wind_Direction
300 301 301 300 301 302 302 302 302 301 301 300 299 298 297 295 293 292 291 291 291 291 291 291 290 289 288 286 284 283 282 280 279 278 277 274 272 272 273 273 273 272 272 271 271 270 270 270 271 271 272 272
299 300 300 299 299 300 301 301 301 301 301 301 300 300 298 296 295 293 292 292 292 293 293 293 292 292 291 289 288 286 285 283 281 279 278 276 274 273 273 274 274 273 272 272 271 270 270 270 270 271 271 272
298 299 300 299 298 300 300 300 301 300 300 301 300 300 299 297 296 294 293 292 293 294 294 293 293 293 293 291 290 288 287 285 283 282 280 278 277 275 274 274 274 273 272 272 273 272 271 270 270 271 271 272
298 299 300 299 299 299 300 300 300 300 300 300 300 300 298 297 296 295 293 293 293 293 293 293 292 293 293 292 290 290 288 287 285 284 282 281 279 277 276 275 274 273 272 272 273 273 272 271 270 271 271 272
297 298 299 299 299 299 299 299 299 299 299 299 299 299 298 297 296 295 293 293 293 292 292 292 292 292 293 292 291 291 289 287 286 285 284 283 281 280 278 276 275 274 273 272 273 273 273 271 269 271 272 273
297 298 298 298 298 298 297 298 298 297 297 297 298 298 297 297 296 295 293 293 293 292 291 291 291 292 292 293 292 291 290 289 288 287 285 285 284 283 281 278 276 275 274 274 273 273 273 271 270 271 272 272
297 297 297 297 297 297 297 297 297 296 296 296 296 296 296 295 295 294 293 293 293 292 291 291 291 291 292 292 292 291 290 289 289 288 287 287 286 285 283 281 279 277 276 276 274 273 272 271 271 272 272 273
297 298 297 297 297 297 297 297 297 296 296 296 296 295 295 294 293 293 293 293 292 292 291 290 290 290 290 290 291 291 289 288 289 288 288 287 286 286 285 284 281 279 278 277 275 274 272 271 272 273 274 274
298 298 297 297 297 297 297 297 297 297 296 296 296 295 295 294 293 292 292 292 292 292 291 291 290 289 289 289 289 290 289 288 288 287 287 286 286 286 285 284 283 282 279 278 276 275 274 273 273 273 274 274
298 298 298 298 298 297 297 297 297 297 296 296 296 296 295 294 294 292 291 291 291 291 291 290 290 289 289 288 288 289 288 288 287 287 286 286 285 285 285 284 283 282 281 279 277 276 275 275 275 275 275 275
297 298 298 298 298 298 298 297 297 296 296 296 296 295 295 294 293 292 291 291 290 290 290 289 290 289 289 288 288 288 288 287 287 287 286 285 285 285 284 283 282 282 281 280 278 278 277 277 277 277 277 277
297 298 298 298 298 298 298 297 297 296 296 296 295 295 295 294 293 292 291 291 290 289 289 289 289 288 288 288 288 288 288 287 287 287 286 285 285 284 283 282 281 281 280 280 279 278 278 279 279 279 279 279
297 298 298 298 298 298 298 297 297 297 296 296 295 295 295 294 293 292 291 290 290 289 289 289 288 288 287 287 287 287 287 286 286 285 286 285 284 284 283 282 281 281 280 280 279 278 278 279 280 280 280 281
297 297 298 298 298 298 297 297 297 297 296 295 295 294 294 294 293 292 291 290 289 289 288 289 289 288 287 287 287 286 286 286 285 284 284 284 284 283 283 282 282 281 280 280 280 280 280 280 280 280 280 281
297 297 297 297 297 297 297 297 297 296 296 295 295 294 294 294 293 291 290 290 289 289 288 288 288 288 288 287 287 286 285 285 284 284 284 284 284 283 282 282 282 282 281 280 280 281 281 280 280 279 280 280
296 296 296 296 296 297 297 297 297 296 296 296 295 294 294 293 293 292 291 290 289 289 288 288 288 288 288 288 287 287 285 285 284 284 283 283 284 283 283 282 282 282 281 280 280 280 280 279 279 279 279 279
296 296 296 296 296 296 297 297 297 297 296 296 296 295 294 293 293 292 291 290 290 289 288 288 287 287 287 287 287 287 286 285 284 284 283 283 283 283 283 282 281 281 281 280 280 280 280 280 280 280 280 280
295 295 295 295 295 296 296 296 296 296 297 297 296 295 294 294 293 293 292 291 290 289 289 288 287 287 287 287 287 286 286 285 284 284 283 283 282 282 283 282 282 282 281 281 281 281 281 281 281 281 281 281
294 294 294 294 294 294 295 295 295 296 296 296 296 295 294 294 293 293 292 292 291 289 289 288 287 287 287 287 286 286 285 284 283 283 282 282 282 282 282 282 282 282 282 282 282 281 281 281 281 282 282 282
294 294 293 293 293 294 294 295 295 295 296 295 295 295 294 294 293 293 293 292 292 290 289 288 287 287 287 287 286 285 285 284 283 282 282 282 281 281 281 281 281 281 281 281 281 281 281 281 281 282 282 282
293 293 293 293 293 293 294 294 295 295 295 295 295 294 294 294 293 293 293 293 292 291 290 289 288 288 287 287 286 285 285 284 283 282 282 282 281 281 281 281 281 281 281 281 281 281 281 281 281 281 282 283
293 293 293 293 293 293 294 294 295 295 295 295 295 295 294 294 293 293 293 294 293 292 292 291 290 290 289 288 287 286 285 285 284 283 282 282 282 282 282 282 282 282 282 281 281 281 281 281 281 281 282 282
293 292 292 293 293 294 294 294 295 295 295 296 296 295 295 295 294 294 294 294 294 294 293 292 292 292 291 290 288 287 286 286 285 285 284 283 283 282 282 282 282 283 282 281 280 280 280 281 281 281 282 283
293 292 292 293 293 293 294 294 294 296 296 297 297 297 296 296 296 295 296 295 295 295 295 294 293 293 293 292 290 289 288 288 288 288 287 285 285 284 283 283 284 284 283 281 281 281 280 281 282 283 283 284
293 293 293 293 294 294 294 294 295 296 297 297 298 298 298 297 297 297 297 297 296 296 296 295 295 294 294 293 292 290 290 290 290 290 289 288 287 286 286 285 286 287 285 284 284 283 281 282 283 284 285 285
294 294 294 293 294 294 295 295 296 296 297 298 298 299 299 299 298 298 298 298 298 298 298 297 296 295 295 295 293 291 291 291 290 291 290 290 289 288 289 288 289 290 288 287 287 284 282 282 283 284 285 286
295 295 295 295 295 296 296 296 296 296 298 299 299 299 300 300 300 299 299 299 299 298 298 298 297 296 296 296 295 292 291 291 291 291 291 291 291 290 290 289 289 292 291 290 289 285 283 282 283 284 284 288
296 296 296 296 296 297 296 297 297 297 298 299 299 299 300 301 301 300 300 299 299 298 298 298 297 296 296 296 297 295 293 292 292 292 292 292 292 291 291 290 290 292 292 292 291 288 285 283 283 283 285 290
297 297 297 297 297 297 298 298 298 298 298 298 299 299 300 300 301 300 299 298 297 297 297 297 297 297 297 297 298 297 295 294 294 294 293 292 291 291 292 291 291 291 292 292 292 290 287 285 284 284 287 290
299 299 299 299 299 299 299 299 299 299 299 299 299 299 299 300 300 299 298 297 297 296 296 297 298 298 298 297 297 297 296 294 294 294 294 294 292 291 291 291 290 291 291 291 291 291 289 286 285 286 288 289
300 300 301 301 301 300 300 300 300 299 299 299 299 299 299 299 299 298 298 297 297 297 297 297 298 297 297 297 297 297 296 295 294 295 295 294 293 291 291 291 291 291 292 291 292 292 291 289 287 288 289 289